CAPE
0 0 0 0 0 0 0 0 0 0 0 0 0 0 100 468 198 88 770 968 1505 1634 1446 1582 2186 1949 1759 1780 1669 1587 1556 1516 1492 1472 1505 1546 1667 1715 1667 1620 1592 1402 563 103 128 198 128 40 31
0 0 0 0 0 0 0 0 0 0 0 0 0 94 739 690 1622 1400 1076 1593 1400 1657 1658 1482 2156 1967 1798 1725 1578 1499 1509 1482 1421 1431 1539 1635 1661 1695 1668 1639 1636 1123 466 57 162 257 180 98 69
0 0 0 0 0 0 0 0 0 0 0 0 0 531 713 997 1590 1186 1571 1576 1563 1579 1515 1647 2110 1949 1811 1734 1542 1452 1422 1410 1425 1457 1538 1631 1665 1672 1643 1725 1644 1041 417 57 185 330 487 359 147
0 0 0 0 0 0 0 0 0 0 0 0 18 666 718 940 1115 1584 1824 1731 1503 1411 1406 2043 2028 1890 1819 1739 1619 1460 1370 1441 1441 1444 1454 1488 1525 1510 1523 1589 1493 1110 420 282 413 598 671 538 266
0 0 0 0 0 0 0 0 0 0 0 0 14 692 769 1794 2027 1950 1865 1561 1378 1435 1544 1954 2017 1868 1803 1712 1546 1503 1380 1433 1467 1468 1463 1453 1406 1310 1267 1230 1137 931 650 395 426 703 885 709 490
0 0 0 0 0 0 0 0 0 0 0 0 24 609 602 1777 2002 1866 1578 1423 1424 1410 1679 1726 2008 1844 1692 1696 1690 1484 1354 1322 1509 1492 1491 1488 1392 1335 1282 1150 999 812 653 545 575 754 721 518 402
0 0 0 0 0 0 0 0 0 0 0 0 0 151 545 1156 1712 1632 1373 1655 1527 1583 1595 1716 1715 1586 1680 1633 1579 1442 1318 1268 1297 1370 1429 1425 1399 1331 1219 1010 853 743 721 677 702 705 636 530 401
0 0 0 0 0 0 0 0 0 0 0 0 0 0 130 426 1566 1393 1483 1805 1690 1571 1615 1597 1623 1476 1349 1357 1678 1511 1392 1308 1188 1249 1336 1365 1388 1313 1157 709 648 654 579 549 438 455 496 393 165
0 0 0 0 0 0 0 0 0 0 0 0 0 0 0 534 1692 1556 1811 1895 1674 1554 1724 1644 1629 1390 1161 1199 1349 1550 1462 1438 1291 1302 1298 984 875 925 793 575 594 610 453 344 226 188 152 82 26
0 0 0 0 0 0 0 0 0 0 0 0 0 0 8 476 1675 1716 1732 1822 1767 1533 1476 1586 1604 1295 1141 1243 1309 1185 1189 1203 1060 1033 1030 706 595 614 570 489 739 689 511 364 210 110 46 28 0
0 0 0 0 0 0 0 0 0 0 0 0 0 0 2 12 702 1597 1694 1906 1792 1639 1618 1423 1285 1119 1376 1475 1183 1235 1199 1061 1026 1036 925 607 523 550 673 396 488 353 325 92 98 19 0 0 0
0 0 0 0 0 0 0 0 0 0 0 0 0 0 0 7 16 47 1547 1916 2064 1824 1819 1538 1408 1327 1453 1474 1193 1188 1230 1106 1002 969 899 655 512 430 502 307 195 204 111 67 3 0 0 0 0
0 0 0 0 0 0 0 0 0 0 0 0 0 4 7 3 11 2 169 1438 2168 2082 1807 1594 1479 1407 1380 1486 1360 1267 1219 1160 1138 942 879 683 403 302 323 275 154 138 55 19 0 0 0 0 0
0 0 0 0 0 0 0 0 0 0 0 0 0 33 0 0 9 26 5 781 2006 2069 1915 1670 1396 1250 1246 1442 1404 1240 1157 1102 1100 1022 1040 910 459 305 243 213 180 103 63 11 0 0 0 0 0
0 0 0 0 0 0 0 0 0 0 0 7 0 1 0 35 0 10 0 0 1121 1417 1638 1596 1303 900 1326 1236 1195 1083 1105 1192 1121 1140 1158 1016 754 371 338 291 237 242 72 30 0 0 0 0 0
0 0 0 0 0 0 0 0 0 0 0 0 0 0 0 0 0 0 0 0 6 530 1249 1456 1449 769 826 1059 975 1150 830 317 872 1127 1204 1140 980 689 369 360 328 369 328 185 42 0 0 0 0
0 0 0 0 0 0 0 0 0 0 0 0 0 0 0 0 0 0 0 0 5 0 334 753 1016 974 910 1058 978 937 369 145 306 769 1086 1214 1170 940 675 505 473 443 495 453 322 160 14 0 0
0 0 0 0 0 0 0 0 0 0 0 0 0 0 0 0 0 0 0 0 0 182 298 150 263 929 1197 1185 1131 1099 677 591 621 823 1244 1465 1482 1424 1013 735 682 563 558 523 547 429 253 88 32
0 0 0 0 0 0 0 0 0 0 0 0 0 0 0 0 0 0 0 0 0 8 941 927 515 826 1081 1339 1296 1048 696 1116 1430 1025 1066 1204 1320 1623 1477 1125 897 846 839 659 497 442 366 290 121
0 0 0 0 0 0 0 0 0 0 0 0 0 0 0 0 0 0 0 0 0 0 506 908 986 951 982 1121 1276 1113 1015 1169 1595 1382 1186 1045 892 784 1008 1176 1062 786 718 765 675 588 418 442 281
0 0 0 0 0 0 0 0 0 0 0 0 0 0 0 0 0 0 0 0 0 0 0 0 116 48 1045 1609 1368 1480 1568 1609 1483 1514 1443 1326 823 644 626 670 718 936 881 836 699 510 529 444 418
0 0 0 0 0 0 0 0 0 0 0 0 0 0 0 0 0 0 0 0 0 0 0 0 0 0 0 30 126 362 1101 1043 1177 1443 1377 1192 1087 991 832 702 724 755 641 685 646 621 441 431 389
0 0 0 0 0 0 0 0 0 0 0 0 0 0 0 0 0 0 0 0 0 0 0 0 0 0 0 0 0 0 0 0 2 7 43 102 187 494 903 1013 877 653 644 702 638 497 467 501 427
0 0 0 0 0 0 0 0 0 0 0 0 0 0 0 0 1 0 0 0 0 0 0 0 0 0 0 0 0 0 0 0 0 0 0 0 4 86 297 516 719 935 823 662 625 449 472 504 502
0 0 0 0 0 0 0 0 0 0 0 0 0 0 0 0 0 0 0 0 0 0 0 0 0 0 0 0 0 0 0 0 0 0 0 0 0 6 36 142 344 637 868 831 781 685 525 480 408
15 8 0 0 0 0 0 0 0 0 0 1 0 0 0 0 0 0 0 0 0 0 0 0 0 0 0 0 0 0 0 0 0 0 0 0 0 0 2 43 81 248 519 673 815 789 696 516 414
11 0 6 0 0 0 0 0 0 0 1 0 0 0 0 0 0 0 0 0 0 0 0 0 0 0 0 0 0 0 0 0 0 0 0 0 0 4 0 4 28 13 167 572 784 755 784 715 461
34 16 0 0 0 0 0 0 0 0 0 0 0 0 0 0 0 0 0 0 0 0 0 0 0 0 0 0 0 0 0 0 0 0 0 0 0 0 0 27 4 0 0 7 330 682 655 621 498
25 30 14 0 0 0 0 0 0 0 0 0 0 0 0 0 0 0 0 0 0 0 0 0 0 0 0 0 0 0 0 0 0 0 0 0 0 0 0 38 9 0 6 7 112 322 510 504 394
0 18 0 0 0 0 0 0 0 0 0 0 0 0 0 0 0 0 0 0 0 0 0 0 0 0 0 0 0 0 0 0 0 0 0 0 0 0 0 5 23 63 42 47 93 149 413 297 230
CIN
-0 -0 -0 -0 -0 -0 -0 -0 -0 -0 -0 -0 -0 -0 -169 -48 -88 -83 -392 -562 -539 -442 -393 -311 -192 -213 -207 -180 -179 -174 -147 -132 -111 -88 -69 -41 -20 -10 -9 -11 -8 -14 -94 -268 -228 -180 -211 -301 -311
-0 -0 -0 -0 -0 -0 -0 -0 -0 -0 -0 -0 -0 -75 -75 -79 -293 -456 -497 -407 -481 -418 -367 -346 -196 -230 -206 -184 -191 -184 -156 -133 -114 -85 -47 -25 -16 -14 -15 -15 -8 -43 -141 -327 -223 -174 -188 -219 -220
-0 -0 -0 -0 -0 -0 -0 -0 -0 -0 -0 -0 -0 -45 -38 -96 -335 -429 -436 -432 -403 -348 -317 -275 -186 -210 -190 -164 -166 -164 -154 -135 -119 -94 -50 -24 -19 -21 -21 -14 -16 -67 -170 -303 -215 -166 -122 -130 -172
-0 -0 -0 -0 -0 -0 -0 -0 -0 -0 -0 -0 -4 -27 -43 -90 -206 -332 -444 -395 -410 -349 -302 -165 -141 -169 -156 -146 -135 -120 -126 -114 -101 -79 -64 -47 -30 -28 -29 -26 -33 -66 -180 -216 -171 -128 -105 -125 -174
-0 -0 -0 -0 -0 -0 -0 -0 -0 -0 -0 -0 -22 -29 -48 -207 -330 -399 -394 -387 -352 -310 -255 -164 -116 -124 -118 -120 -135 -115 -95 -85 -81 -67 -53 -44 -43 -49 -50 -50 -56 -80 -129 -189 -178 -129 -101 -123 -159
-0 -0 -0 -0 -0 -0 -0 -0 -0 -0 -0 -0 -28 -15 -30 -197 -249 -314 -379 -354 -316 -287 -189 -144 -93 -88 -105 -106 -99 -127 -118 -82 -54 -48 -35 -27 -32 -34 -40 -54 -72 -99 -134 -167 -159 -146 -152 -190 -211
-0 -0 -0 -0 -0 -0 -0 -0 -0 -0 -0 -0 -0 -21 -38 -103 -160 -223 -261 -258 -229 -183 -168 -117 -101 -102 -73 -94 -103 -119 -124 -97 -63 -47 -35 -24 -18 -23 -33 -59 -93 -125 -140 -165 -167 -175 -186 -208 -240
-0 -0 -0 -0 -0 -0 -0 -0 -0 -0 -0 -0 -0 -0 -21 -22 -102 -104 -157 -129 -147 -134 -100 -103 -112 -126 -120 -96 -70 -84 -96 -79 -73 -52 -38 -35 -21 -24 -33 -113 -141 -148 -180 -201 -236 -251 -239 -260 -311
-0 -0 -0 -0 -0 -0 -0 -0 -0 -0 -0 -0 -0 -0 -0 -155 -100 -55 -141 -107 -110 -122 -85 -64 -67 -100 -133 -102 -74 -50 -56 -59 -58 -43 -34 -52 -71 -71 -113 -196 -186 -176 -216 -255 -303 -325 -348 -390 -448
-0 -0 -0 -0 -0 -0 -0 -0 -0 -0 -0 -0 -0 -0 -42 -88 -72 -55 -140 -129 -134 -161 -161 -118 -73 -83 -90 -68 -53 -65 -50 -42 -54 -64 -58 -119 -146 -142 -153 -187 -120 -142 -201 -244 -318 -384 -428 -344 -0
-0 -0 -0 -0 -0 -0 -0 -0 -0 -0 -0 -0 -0 -0 -9 -16 -28 -47 -159 -173 -211 -199 -167 -194 -183 -146 -90 -74 -60 -38 -43 -58 -53 -50 -69 -144 -173 -150 -115 -225 -214 -267 -303 -482 -449 -607 -0 -0 -0
-0 -0 -0 -0 -0 -0 -0 -0 -0 -0 -0 -0 -0 -0 -0 -10 -1 -18 -67 -120 -128 -130 -158 -190 -239 -210 -125 -111 -126 -104 -57 -72 -81 -77 -73 -107 -159 -222 -206 -280 -347 -379 -482 -530 -655 -0 -0 -0 -0
-0 -0 -0 -0 -0 -0 -0 -0 -0 -0 -0 -0 -0 -28 -1 -11 -11 -16 -71 -99 -110 -111 -124 -196 -183 -212 -232 -216 -205 -190 -158 -111 -97 -107 -104 -125 -195 -217 -257 -309 -374 -408 -517 -642 -0 -0 -0 -0 -0
-0 -0 -0 -0 -0 -0 -0 -0 -0 -0 -0 -0 -1 -27 -0 -0 -17 -26 -30 -102 -90 -103 -90 -139 -245 -200 -197 -269 -236 -241 -291 -261 -193 -193 -252 -181 -213 -283 -131 -282 -171 -423 -474 -571 -0 -0 -0 -0 -0
-0 -0 -0 -0 -0 -0 -0 -0 -0 -0 -0 -36 -0 -1 -0 -0 -0 -3 -0 -0 -177 -173 -164 -143 -192 -206 -236 -241 -221 -222 -291 -322 -322 -328 -248 -265 -269 -266 -293 -85 -101 -156 -209 -466 -0 -0 -0 -0 -0
-0 -0 -0 -0 -0 -0 -0 -0 -0 -0 -0 -0 -0 -0 -0 -0 -0 -0 -0 -0 -47 -264 -201 -155 -113 -79 -317 -249 -234 -206 -203 -220 -278 -273 -244 -238 -307 -205 -138 -252 -157 -204 -148 -199 -350 -12 -0 -0 -0
-0 -0 -0 -0 -0 -0 -0 -0 -0 -11 -0 -0 -0 -0 -0 -0 -0 -0 -0 -0 -325 -0 -359 -222 -154 -123 -310 -246 -216 -166 -134 -51 -322 -173 -179 -192 -233 -231 -145 -225 -232 -212 -140 -126 -164 -269 -166 -0 -0
-0 -0 -0 -0 -0 -0 -0 -0 -0 -0 -0 -0 -0 -0 -0 -0 -0 -0 -0 -0 -0 -402 -457 -285 -224 -295 -216 -174 -167 -126 -110 -223 -249 -211 -158 -136 -77 -93 -130 -151 -154 -132 -143 -119 -88 -120 -173 -318 -366
-0 -0 -0 -0 -0 -0 -0 -0 -0 -0 -0 -0 -0 -0 -0 -0 -0 -0 -0 -0 -0 -197 -230 -279 -332 -256 -175 -112 -86 -95 -74 -184 -126 -162 -166 -108 -104 -70 -65 -46 -49 -53 -61 -123 -84 -78 -88 -112 -228
-0 -0 -0 -0 -0 -0 -0 -0 -0 -0 -0 -0 -0 -0 -0 -0 -0 -0 -0 -0 -0 -0 -127 -104 -144 -108 -95 -97 -78 -63 -52 -169 -122 -114 -87 -85 -87 -91 -56 -56 -56 -33 -38 -44 -57 -85 -80 -81 -102
-0 -0 -0 -0 -0 -0 -0 -0 -0 -0 -0 -0 -0 -0 -0 -0 -0 -0 -0 -0 -0 -0 -0 -0 -51 -216 -102 -96 -107 -97 -72 -59 -77 -68 -63 -24 -39 -44 -27 -36 -21 -6 -6 -8 -23 -35 -50 -60 -75
-0 -0 -0 -0 -0 -0 -0 -0 -0 -0 -0 -0 -0 -0 -0 -0 -0 -0 -0 -0 -0 -0 -0 -0 -0 -0 -0 -14 -51 -52 -20 -16 -9 -7 -5 -12 -16 -28 -38 -32 -36 -35 -77 -6 -18 -16 -29 -32 -32
-0 -0 -0 -0 -0 -0 -0 -0 -0 -0 -0 -0 -0 -0 -0 -0 -0 -0 -0 -0 -0 -0 -0 -0 -0 -0 -0 -0 -0 -0 -0 -0 -181 -252 -118 -107 -101 -160 -81 -46 -47 -70 -109 -44 -2 -2 -3 -18 -26
-0 -0 -0 -0 -0 -0 -0 -0 -0 -0 -0 -0 -0 -0 -0 -0 -4 -0 -0 -0 -0 -0 -0 -0 -0 -0 -0 -0 -0 -0 -0 -0 -0 -0 -0 -0 -97 -261 -167 -108 -67 -32 -27 -43 -48 -34 -13 -1 -7
-0 -0 -0 -0 -0 -0 -0 -0 -0 -0 -0 -0 -0 -0 -0 -0 -0 -0 -0 -0 -0 -0 -0 -0 -0 -0 -0 -0 -0 -0 -0 -0 -0 -0 -0 -0 -0 -211 -233 -202 -145 -70 -27 -12 -18 -16 -28 -32 -5
-26 -18 -0 -0 -0 -0 -0 -0 -0 -0 -0 -2 -0 -0 -0 -0 -0 -0 -0 -0 -0 -0 -0 -0 -0 -0 -0 -0 -0 -0 -0 -0 -0 -0 -0 -0 -0 -0 -29 -218 -181 -134 -52 -13 -4 -4 -6 -22 -39
-26 -0 -33 -0 -0 -0 -0 -0 -0 -0 -2 -0 -0 -0 -0 -0 -0 -0 -0 -0 -0 -0 -0 -0 -0 -0 -0 -0 -0 -0 -0 -0 -0 -0 -0 -0 -0 -109 -0 -76 -160 -178 -96 -23 -5 -1 -0 -0 -12
-19 -11 -0 -0 -0 -0 -0 -0 -0 -0 -0 -0 -0 -0 -0 -0 -0 -0 -0 -0 -0 -0 -0 -0 -0 -0 -0 -0 -0 -0 -0 -0 -0 -0 -0 -0 -0 -0 -0 -92 -84 -0 -0 -26 -55 -6 -0 -1 -4
-9 -3 -6 -0 -0 -0 -0 -0 -0 -0 -0 -0 -0 -0 -0 -0 -0 -0 -0 -0 -0 -0 -0 -0 -0 -0 -0 -0 -0 -0 -0 -0 -0 -0 -0 -0 -0 -0 -0 -71 -106 -0 -104 -68 -74 -42 -18 -1 -2
-0 -1 -0 -0 -0 -0 -0 -0 -0 -0 -0 -0 -0 -0 -0 -0 -0 -0 -0 -0 -0 -0 -0 -0 -0 -0 -0 -0 -0 -0 -0 -0 -0 -0 -0 -0 -0 -0 -0 -155 -112 -81 -112 -94 -68 -58 -21 -33 -12
Wind_Speed
nan nan nan nan nan nan nan nan nan nan nan nan nan nan 26 27 18 nan 16 20 29 24 27 25 23 23 24 25 23 24 25 26 27 24 22 21 22 23 24 24 25 25 25 24 22 20 20 nan nan
nan nan nan nan nan nan nan nan nan nan nan nan nan nan 36 27 26 27 29 24 32 27 22 23 26 27 28 28 26 24 24 26 26 24 22 22 23 24 24 24 24 25 24 nan 23 22 22 nan nan
nan nan nan nan nan nan nan nan nan nan nan nan nan 48 44 34 31 26 29 34 36 34 28 27 33 32 32 29 28 24 24 25 26 26 24 21 22 23 23 24 24 25 24 nan 25 25 22 21 20
nan nan nan nan nan nan nan nan nan nan nan nan nan 45 49 43 31 31 37 38 39 38 35 34 37 37 34 31 29 24 22 25 26 26 24 23 22 21 20 21 21 22 23 23 24 21 20 21 21
nan nan nan nan nan nan nan nan nan nan nan nan nan 49 52 50 47 43 42 43 41 41 40 40 39 37 33 31 31 28 22 21 24 25 24 22 21 19 18 18 19 19 20 22 22 21 20 19 19
nan nan nan nan nan nan nan nan nan nan nan nan nan 56 47 50 45 44 45 44 43 44 44 43 42 37 34 30 30 29 27 22 21 22 21 19 18 17 17 18 18 18 18 19 19 20 19 19 18
nan nan nan nan nan nan nan nan nan nan nan nan nan 60 50 48 46 47 47 51 50 47 49 46 44 43 42 38 31 29 29 26 20 19 19 19 16 15 15 16 17 18 18 18 19 19 18 17 17
nan nan nan nan nan nan nan nan nan nan nan nan nan nan 58 54 55 60 55 57 55 49 48 48 49 47 43 41 39 33 29 26 23 21 20 20 21 19 17 15 15 17 18 18 17 19 18 18 17
nan nan nan nan nan nan nan nan nan nan nan nan nan nan nan 71 64 61 55 57 58 55 47 48 50 50 54 49 44 39 36 31 29 26 25 23 22 20 18 17 15 16 17 17 14 17 19 nan nan
nan nan nan nan nan nan nan nan nan nan nan nan nan nan nan 62 61 57 53 47 51 53 50 48 51 52 51 51 49 48 40 40 37 34 28 27 24 22 21 18 16 16 16 15 16 18 nan nan nan
nan nan nan nan nan nan nan nan nan nan nan nan nan nan nan nan 58 56 52 41 41 39 44 45 48 49 47 51 51 49 50 47 44 40 36 32 29 27 24 23 21 21 17 nan nan nan nan nan nan
nan nan nan nan nan nan nan nan nan nan nan nan nan nan nan nan nan nan 54 41 45 33 26 39 47 50 48 52 49 50 51 52 50 45 40 38 35 32 29 27 23 21 23 nan nan nan nan nan nan
nan nan nan nan nan nan nan nan nan nan nan nan nan nan nan nan nan nan 54 45 28 34 37 34 37 43 48 50 52 53 50 53 55 51 44 41 39 36 35 31 32 30 nan nan nan nan nan nan nan
nan nan nan nan nan nan nan nan nan nan nan nan nan nan nan nan nan nan nan 47 30 29 34 34 35 41 40 51 31 43 43 50 52 52 55 42 42 42 38 36 35 35 nan nan nan nan nan nan nan
nan nan nan nan nan nan nan nan nan nan nan nan nan nan nan nan nan nan nan nan 34 32 27 25 35 36 38 43 45 45 48 54 45 59 44 45 46 44 42 42 39 40 nan nan nan nan nan nan nan
nan nan nan nan nan nan nan nan nan nan nan nan nan nan nan nan nan nan nan nan nan 17 22 26 29 24 29 27 17 22 34 45 48 49 44 45 53 45 47 46 46 48 49 47 nan nan nan nan nan
nan nan nan nan nan nan nan nan nan nan nan nan nan nan nan nan nan nan nan nan nan nan 29 30 31 27 26 26 24 21 27 24 23 19 27 34 40 54 56 54 52 53 52 50 51 49 nan nan nan
nan nan nan nan nan nan nan nan nan nan nan nan nan nan nan nan nan nan nan nan nan 42 36 39 38 38 38 37 34 32 36 29 25 23 29 29 32 46 57 52 54 57 59 45 44 35 52 nan nan
nan nan nan nan nan nan nan nan nan nan nan nan nan nan nan nan nan nan nan nan nan nan 52 48 47 50 49 48 45 42 37 38 34 36 39 36 34 36 48 54 61 58 45 32 33 33 30 35 41
nan nan nan nan nan nan nan nan nan nan nan nan nan nan nan nan nan nan nan nan nan nan 41 42 43 40 38 39 39 35 36 35 37 39 41 43 39 42 48 44 53 57 39 37 37 35 38 35 42
nan nan nan nan nan nan nan nan nan nan nan nan nan nan nan nan nan nan nan nan nan nan nan nan 45 nan 40 40 40 41 44 45 45 44 40 37 39 42 38 37 34 47 53 54 55 47 43 41 45
nan nan nan nan nan nan nan nan nan nan nan nan nan nan nan nan nan nan nan nan nan nan nan nan nan nan nan nan 49 51 50 48 49 48 49 48 48 45 49 50 51 45 47 54 42 49 46 43 45
nan nan nan nan nan nan nan nan nan nan nan nan nan nan nan nan nan nan nan nan nan nan nan nan nan nan nan nan nan nan nan nan nan nan nan 54 56 57 59 57 56 53 56 44 42 49 48 55 51
nan nan nan nan nan nan nan nan nan nan nan nan nan nan nan nan nan nan nan nan nan nan nan nan nan nan nan nan nan nan nan nan nan nan nan nan nan nan 63 63 65 62 57 54 52 49 45 54 54
nan nan nan nan nan nan nan nan nan nan nan nan nan nan nan nan nan nan nan nan nan nan nan nan nan nan nan nan nan nan nan nan nan nan nan nan nan nan nan 68 70 70 66 64 61 60 59 57 51
nan nan nan nan nan nan nan nan nan nan nan nan nan nan nan nan nan nan nan nan nan nan nan nan nan nan nan nan nan nan nan nan nan nan nan nan nan nan nan nan nan 71 73 71 69 67 66 65 65
nan nan nan nan nan nan nan nan nan nan nan nan nan nan nan nan nan nan nan nan nan nan nan nan nan nan nan nan nan nan nan nan nan nan nan nan nan nan nan nan nan nan 75 73 73 74 71 71 68
nan nan nan nan nan nan nan nan nan nan nan nan nan nan nan nan nan nan nan nan nan nan nan nan nan nan nan nan nan nan nan nan nan nan nan nan nan nan nan nan nan nan nan nan 74 73 71 72 75
nan nan nan nan nan nan nan nan nan nan nan nan nan nan nan nan nan nan nan nan nan nan nan nan nan nan nan nan nan nan nan nan nan nan nan nan nan nan nan nan nan nan nan nan 76 74 72 69 69
nan nan nan nan nan nan nan nan nan nan nan nan nan nan nan nan nan nan nan nan nan nan nan nan nan nan nan nan nan nan nan nan nan nan nan nan nan nan nan nan nan nan nan nan nan 73 76 73 70
Wind_Direction
nan nan nan nan nan nan nan nan nan nan nan nan nan nan 212 241 266 nan 231 278 278 283 304 295 301 301 299 294 298 305 309 305 302 301 300 303 303 302 304 306 307 310 313 315 314 315 317 nan nan
nan nan nan nan nan nan nan nan nan nan nan nan nan nan 215 229 234 248 260 267 277 284 300 299 302 299 298 298 297 301 304 306 305 299 297 299 302 305 308 309 311 314 316 nan 320 323 323 nan nan
nan nan nan nan nan nan nan nan nan nan nan nan nan 219 208 216 227 243 257 269 270 273 272 281 296 298 295 294 296 298 300 301 299 299 294 295 298 303 307 309 312 317 318 nan 327 326 322 321 323
nan nan nan nan nan nan nan nan nan nan nan nan nan 221 214 211 227 231 254 259 262 272 270 275 281 286 288 287 289 292 298 298 299 295 291 293 295 297 301 308 313 316 318 321 322 322 323 323 327
nan nan nan nan nan nan nan nan nan nan nan nan nan 224 219 220 231 246 248 251 251 253 260 268 276 279 279 281 287 286 287 292 297 294 294 291 294 298 302 305 308 312 317 321 325 327 328 331 333
nan nan nan nan nan nan nan nan nan nan nan nan nan 228 227 237 236 238 249 249 242 251 255 264 269 272 279 279 278 286 285 283 290 293 292 289 292 297 301 305 308 307 311 317 324 327 330 334 337
nan nan nan nan nan nan nan nan nan nan nan nan nan 233 226 232 237 242 236 243 246 245 251 255 256 266 271 275 274 278 281 280 278 283 286 284 284 291 296 298 303 304 306 311 318 323 329 337 342
nan nan nan nan nan nan nan nan nan nan nan nan nan nan 232 225 240 241 239 237 245 246 245 250 255 261 260 266 270 267 271 274 271 270 274 280 285 288 289 291 294 301 304 307 317 324 327 333 335
nan nan nan nan nan nan nan nan nan nan nan nan nan nan nan 236 238 239 241 240 240 245 246 244 246 252 260 257 259 258 264 264 262 264 266 263 257 266 285 287 296 298 300 301 308 312 318 nan nan
nan nan nan nan nan nan nan nan nan nan nan nan nan nan nan 232 236 241 240 241 241 247 250 247 248 252 253 255 255 256 253 250 250 250 253 251 253 255 264 269 281 287 285 286 295 301 nan nan nan
nan nan nan nan nan nan nan nan nan nan nan nan nan nan nan nan 235 234 241 244 250 258 249 257 260 255 249 250 252 254 256 256 248 246 246 245 244 242 246 252 262 265 273 nan nan nan nan nan nan
nan nan nan nan nan nan nan nan nan nan nan nan nan nan nan nan nan nan 234 241 239 243 252 257 265 261 256 248 248 253 258 261 260 251 247 245 246 247 245 246 243 255 260 nan nan nan nan nan nan
nan nan nan nan nan nan nan nan nan nan nan nan nan nan nan nan nan nan 233 233 255 237 246 256 253 254 258 265 253 254 251 259 262 258 253 250 250 245 244 245 248 247 nan nan nan nan nan nan nan
nan nan nan nan nan nan nan nan nan nan nan nan nan nan nan nan nan nan nan 236 236 230 245 251 262 251 262 257 253 254 259 273 255 252 260 262 257 253 244 244 247 248 nan nan nan nan nan nan nan
nan nan nan nan nan nan nan nan nan nan nan nan nan nan nan nan nan nan nan nan 255 243 247 275 282 266 275 272 262 255 257 256 274 266 259 257 258 255 255 250 249 248 nan nan nan nan nan nan nan
nan nan nan nan nan nan nan nan nan nan nan nan nan nan nan nan nan nan nan nan nan 288 285 284 291 291 289 283 294 288 263 255 255 265 258 256 252 247 244 248 246 248 248 250 nan nan nan nan nan
nan nan nan nan nan nan nan nan nan nan nan nan nan nan nan nan nan nan nan nan nan nan 277 265 275 282 288 288 282 247 256 260 256 256 257 263 264 237 242 242 241 246 244 244 245 248 nan nan nan
nan nan nan nan nan nan nan nan nan nan nan nan nan nan nan nan nan nan nan nan nan 241 248 262 259 255 254 254 250 249 236 236 243 256 260 263 246 245 245 245 242 242 246 248 259 260 251 nan nan
nan nan nan nan nan nan nan nan nan nan nan nan nan nan nan nan nan nan nan nan nan nan 245 243 250 248 246 247 249 245 247 251 243 247 253 261 252 256 247 246 240 242 236 249 261 264 268 263 262
nan nan nan nan nan nan nan nan nan nan nan nan nan nan nan nan nan nan nan nan nan nan 254 257 258 259 263 265 268 270 274 272 268 267 266 264 257 274 268 272 258 251 240 240 249 258 253 255 269
nan nan nan nan nan nan nan nan nan nan nan nan nan nan nan nan nan nan nan nan nan nan nan nan 260 nan 260 265 264 262 258 256 253 252 253 263 263 263 277 265 248 266 267 265 250 248 246 246 252
nan nan nan nan nan nan nan nan nan nan nan nan nan nan nan nan nan nan nan nan nan nan nan nan nan nan nan nan 255 258 259 262 262 259 255 253 259 259 265 268 272 265 269 256 263 261 258 251 256
nan nan nan nan nan nan nan nan nan nan nan nan nan nan nan nan nan nan nan nan nan nan nan nan nan nan nan nan nan nan nan nan nan nan nan 258 256 257 259 260 260 262 258 265 271 248 252 262 260
nan nan nan nan nan nan nan nan nan nan nan nan nan nan nan nan nan nan nan nan nan nan nan nan nan nan nan nan nan nan nan nan nan nan nan nan nan nan 261 259 259 258 258 260 259 258 272 267 271
nan nan nan nan nan nan nan nan nan nan nan nan nan nan nan nan nan nan nan nan nan nan nan nan nan nan nan nan nan nan nan nan nan nan nan nan nan nan nan 258 261 260 258 254 254 259 261 261 268
nan nan nan nan nan nan nan nan nan nan nan nan nan nan nan nan nan nan nan nan nan nan nan nan nan nan nan nan nan nan nan nan nan nan nan nan nan nan nan nan nan 258 259 258 256 252 253 259 261
nan nan nan nan nan nan nan nan nan nan nan nan nan nan nan nan nan nan nan nan nan nan nan nan nan nan nan nan nan nan nan nan nan nan nan nan nan nan nan nan nan nan 253 255 257 257 257 255 257
nan nan nan nan nan nan nan nan nan nan nan nan nan nan nan nan nan nan nan nan nan nan nan nan nan nan nan nan nan nan nan nan nan nan nan nan nan nan nan nan nan nan nan nan 250 253 256 258 256
nan nan nan nan nan nan nan nan nan nan nan nan nan nan nan nan nan nan nan nan nan nan nan nan nan nan nan nan nan nan nan nan nan nan nan nan nan nan nan nan nan nan nan nan 248 249 254 257 257
nan nan nan nan nan nan nan nan nan nan nan nan nan nan nan nan nan nan nan nan nan nan nan nan nan nan nan nan nan nan nan nan nan nan nan nan nan nan nan nan nan nan nan nan nan 251 250 251 253